Regional Weather Roundup
Issued by NWS Newport/Morehead, NC

Current Version | Previous Version | Text Only | Print | Product List | Glossary On
Versions: 1 2 3 4 5 6 7 8 9 10 11 12 13 14 15 16 17 18 19 20 21 22 23 24 25 26 27 28 29 30 31 32 33 34 35 36 37 38 39 40 41 42 43 44 45 46 47 48 49 50
000
ASUS42 KMHX 251913
RWRMHX
WEATHER ROUNDUP FOR EASTERN NORTH CAROLINA
NATIONAL WEATHER SERVICE NEWPORT/MOREHEAD CITY NC
300 PM EDT SUN SEP 25 2016

NOTE: "FAIR" INDICATES FEW OR NO CLOUDS BELOW 12,000 FEET
WITH NO SIGNIFICANT WEATHER AND/OR OBSTRUCTIONS TO VISIBILITY

NCZ015>017-031-032-045>047-102-103-252000-
NORTH COAST

CITY           SKY/WX    TMP DP  RH WIND       PRES   REMARKS
EDENTON        CLOUDY    75  57  53 E5        30.15F
ELIZABETH CITY MOSUNNY   75  59  57 NE10      30.14F
KITTY HAWK     NOT AVBL
MANTEO         MOSUNNY   73  56  57 NE14      30.15S

$$

NCZ045>047-081-094-103-104-252000-
CENTRAL COAST

CITY           SKY/WX    TMP DP  RH WIND       PRES   REMARKS
FRISCO         MOSUNNY   76  60  57 NE12G22   30.11F

$$

NCZ095-097-098-100-101-252000-
SOUTHERN COAST

CITY           SKY/WX    TMP DP  RH WIND       PRES   REMARKS
BEAUFORT       CLOUDY    78  62  57 NE10      30.10F
CEDAR ISLAND   NOT AVBL
JACKSONVILLE   CLOUDY    78  69  73 NE8       30.09F
PINEY ISLAND   CLOUDY   N/A N/A N/A NE14      30.11F
WILMINGTON     MOSUNNY   81  71  71 E10       30.07F


$$

NCZ011>013-027>030-043-044-078>080-089-090>093-098-252000-
COASTAL PLAIN

CITY           SKY/WX    TMP DP  RH WIND       PRES   REMARKS
AHOSKIE        SUNNY     71  61  69 E6        30.15F
CLINTON        PTSUNNY   78  71  76 E3        30.11F
ELIZABETHTOWN  MOSUNNY   83  70  65 CALM      30.08F
GOLDSBORO      PTSUNNY   75  71  88 NE8       30.10F
GREENVILLE     CLOUDY    73  64  73 E3        30.14S
HAVELOCK       CLOUDY    76  64  66 E9        30.12F
KENANSVILLE    CLOUDY    77  70  78 E3        30.11F
KINSTON        CLOUDY    75  66  73 E5        30.13F
NEW BERN       CLOUDY    76  64  66 NE9       30.13S
RICHLANDS      CLOUDY    77  70  79 NE8       30.11F
ROCKY MOUNT    CLOUDY    75  66  73 NE9       30.14S
WASHINGTON     PTSUNNY   74  63  68 NE6       30.14R
WHITEVILLE     NOT AVBL

$$

AMZ130-135-150-152-154-156-158-170-250-252-270-ANZ085-086-088-633-658-670-252000-
MARINE OBSERVATIONS

STATION/POSITION TIME  TEMP    WIND        PRES    WAVE   SWELL
                       AIR SEA DIR/SP/G            HT/PER HT/PER
                 (UTC) (F)     (DEG/KT/KT) (MB)    (FT/S) (FT/S)
CHESAPEAKE LIGHT NOT AVBL
64 E VA BEACH    1850   70 75   10/ 14/ 16 1020.0    5/ 8   3/ 8
DUCK             1842   70 77   30/ 12/ 16 1020.3
2 E DUCK         1841      77                N/A     4/ 9   2/11
OREGON INLET     1842   72 78   30/ 12/ 16 1020.3
13E OREGON INLT  1830      76                N/A     5/ 9   3/ 7
HATTERAS CG      1842   73 80   30/ 13/ 18 1019.5
DIAMOND BUOY     1850   74 85   30/ 16/ 21 1019.1    5/10   3/10
CAPE LOOKOUT     1900   76      40/ 17/ 19 1019.0
BEAUFORT LAB     1842   77 79   40/ 10/ 14 1018.9
30 SE NEW RVR IN 1808   77 82   70/ 16/ 19 1018.9
30 SE NEW RVR IN 1825      82                N/A     4/10   2/11
27 SE WRIGHTSVLE 1808   79 81   60/ 16/ 19 1018.9
5 SE WRIGHTSVLE  1808   78 81   80/ 12/ 17 1019.7
225 S CAPE HAT   1850   82 84   50/ 12/ 12 1016.2    4/ 9   3/ 9
41 SE CHARLESTON 1850   82 82   60/ 14/ 17 1016.5    4/11   3/11

$$




USA.gov is the U.S. government's official web portal to all federal, state and local government web resources and services.